Location: Chippewa Lake
(41.0698°N, 81.9010°W)
Time: 22:01:42
(UTC+00:00)

ARIANE 5 R/B - Pass Details

Date: 09 May 2021
Orbit: 748 x 795 km, 98.7° (Epoch: 16 June)

Event Time Altitude Azimuth Distance (km) Brightness Sun altitude
Rises 07:34:48 0° 27° (NNE) 3,279 7.2 -24.1°
Reaches altitude 10° 07:37:39 10° 43° (NE) 2,338 6.1 -23.8°
Maximum altitude 07:41:37 22° 94° (E) 1,625 4.5 -23.4°
Enters shadow 07:45:19 11° 143° (SE) 2,232 4.7 -22.9°
